Middletown, PA

1:40 AM EDT on May 28, 2018 (GMT -0400)
Harrisburg International

Weather History for KMDT - September, 2013

Change the Weather History Date:

Wednesday, September 4, 2013

  Actual Average Record
Temperature  
Mean Temperature 71 °F 70 °F  
Max Temperature 81 °F 80 °F 93 °F (1964)
Min Temperature 60 °F 61 °F 46 °F (1946)
Degree Days  
Heating Degree Days 0 0  
Month to date heating degree days 0 0  
Since 1 July heating degree days 0 2  
Cooling Degree Days 6 6  
Month to date cooling degree days 44 25  
Year to date cooling degree days 996 921  
Growing Degree Days 20 (Base 50)    
Moisture  
Dew Point 55 °F    
Average Humidity 63    
Maximum Humidity 84    
Minimum Humidity 42    
Precipitation  
Precipitation 0.00 in 0.12 in 1.33 in (2011)
Month to date precipitation 0.01 0.47  
Year to date precipitation 24.28 27.41  
Sea Level Pressure  
Sea Level Pressure 30.01 in    
Wind  
Wind Speed 7 mph (WNW)    
Max Wind Speed 15 mph    
Max Gust Speed 18 mph    
Visibility 10 miles    
Events      
T = Trace of Precipitation, MM = Missing Value Source: NWS Daily Summary

Daily Weather History Graph

Daily Weather History Graph

Search for Another Location

Airport or City:

Astronomy

Sep. 04, 2013 Rise Set
Actual Time 6:37 AM EDT 7:33 PM EDT
Civil Twilight 6:09 AM EDT 8:01 PM EDT
Nautical Twilight 5:37 AM EDT 8:33 PM EDT
Astronomical Twilight 5:02 AM EDT 9:08 PM EDT
Moon 5:47 AM EDT (9/4) 6:52 PM EDT (9/4)
Length of Visible Light 13h 51m
Length of Day
12h 55m
Waning Crescent, 1% of the Moon is Illuminated
Sep 4
Waning Crescent
Sep 5
New
Sep 12
First Quarter
Sep 19
Full
Sep 26
Last Quarter

Hourly Weather History & Observations

Time (EDT) Temp. Heat Index Dew Point Humidity Pressure Visibility Wind Dir Wind Speed Gust Speed Precip Events Conditions
12:56 AM 64.9 °F - 53.1 °F 65% 29.96 in 10.0 mi NW 15.0 mph - N/A   Partly Cloudy
1:56 AM 64.9 °F - 54.0 °F 68% 29.97 in 10.0 mi NNW 9.2 mph - N/A   Partly Cloudy
2:56 AM 63.0 °F - 54.0 °F 72% 29.97 in 10.0 mi NNW 8.1 mph - N/A   Clear
3:56 AM 62.1 °F - 55.0 °F 78% 29.98 in 10.0 mi NW 8.1 mph - N/A   Clear
4:56 AM 62.1 °F - 54.0 °F 75% 30.00 in 10.0 mi NW 4.6 mph - N/A   Clear
5:56 AM 61.0 °F - 55.0 °F 81% 30.02 in 10.0 mi WNW 5.8 mph - N/A   Clear
6:56 AM 61.0 °F - 55.0 °F 81% 30.04 in 10.0 mi NW 8.1 mph - N/A   Clear
7:56 AM 64.0 °F - 55.0 °F 73% 30.05 in 10.0 mi WNW 13.8 mph - N/A   Clear
8:56 AM 66.0 °F - 55.0 °F 68% 30.07 in 10.0 mi WNW 9.2 mph - N/A   Clear
9:56 AM 69.1 °F - 55.0 °F 61% 30.07 in 10.0 mi West 8.1 mph - N/A   Clear
10:56 AM 72.0 °F - 55.0 °F 55% 30.06 in 10.0 mi WNW 8.1 mph - N/A   Clear
11:56 AM 73.9 °F - 55.0 °F 52% 30.06 in 10.0 mi NW 6.9 mph - N/A   Clear
12:56 PM 77.0 °F - 54.0 °F 45% 30.04 in 10.0 mi WNW 5.8 mph - N/A   Scattered Clouds
1:56 PM 78.1 °F - 53.1 °F 42% 30.03 in 10.0 mi WNW 6.9 mph - N/A   Scattered Clouds
2:56 PM 79.0 °F - 57.0 °F 47% 30.01 in 10.0 mi WSW 8.1 mph - N/A   Scattered Clouds
3:56 PM 80.1 °F 80.2 °F 55.9 °F 43% 30.00 in 10.0 mi WSW 10.4 mph 16.1 mph N/A   Partly Cloudy
4:56 PM 80.1 °F 80.1 °F 55.0 °F 42% 29.99 in 10.0 mi WSW 6.9 mph - N/A   Partly Cloudy
5:56 PM 80.1 °F 80.1 °F 55.0 °F 42% 29.99 in 10.0 mi West 9.2 mph - N/A   Partly Cloudy
6:56 PM 75.9 °F - 61.0 °F 60% 29.98 in 10.0 mi SW 5.8 mph - N/A   Partly Cloudy
7:56 PM 75.0 °F - 59.0 °F 57% 29.98 in 10.0 mi SW 9.2 mph - N/A   Clear
8:56 PM 73.0 °F - 54.0 °F 51% 30.00 in 10.0 mi Calm Calm - N/A   Clear
9:56 PM 70.0 °F - 55.0 °F 59% 30.02 in 10.0 mi NW 4.6 mph - N/A   Clear
10:56 PM 66.9 °F - 55.9 °F 68% 30.03 in 10.0 mi NW 3.5 mph - N/A   Clear
11:56 PM 64.9 °F - 55.0 °F 70% 30.02 in 10.0 mi Calm Calm - N/A   Clear